Time,TemperatureF,DewpointF,PressureIn,WindDirection,WindDirectionDegrees,WindSpeedMPH,WindSpeedGustMPH,Humidity,HourlyPrecipIn,Conditions,Clouds,dailyrainin,SoftwareType,DateUTC
2013-04-07 00:00:00,36.9,15.9,30.22,South,185,4.0,5.8,42,0.00,,CLR,0.00,VWS V13.00,2013-04-07 04:00:00,
2013-04-07 00:01:00,36.9,15.9,30.22,South,179,6.3,6.3,42,0.00,,CLR,0.00,VWS V13.00,2013-04-07 04:01:00,
2013-04-07 00:07:00,37.0,16.6,30.22,SW,214,5.4,8.1,43,0.00,,CLR,0.00,VWS V13.00,2013-04-07 04:07:00,
2013-04-07 00:12:00,36.9,16.5,30.22,SW,220,3.6,8.1,43,0.00,,CLR,0.00,VWS V13.00,2013-04-07 04:12:00,
2013-04-07 00:17:00,36.5,16.1,30.22,SSW,208,3.1,8.1,43,0.00,,CLR,0.00,VWS V13.00,2013-04-07 04:17:00,
2013-04-07 00:22:00,36.5,16.7,30.22,WSW,251,2.2,2.7,44,0.00,,CLR,0.00,VWS V13.00,2013-04-07 04:22:00,
2013-04-07 00:27:00,36.5,16.7,30.22,SSW,197,0.0,3.6,44,0.00,,CLR,0.00,VWS V13.00,2013-04-07 04:27:00,
2013-04-07 00:32:00,36.3,16.5,30.22,SW,217,3.1,3.6,44,0.00,,CLR,0.00,VWS V13.00,2013-04-07 04:32:00,
2013-04-07 00:37:00,36.1,16.9,30.22,WSW,257,0.0,4.9,45,0.00,,CLR,0.00,VWS V13.00,2013-04-07 04:37:00,
2013-04-07 00:42:00,36.0,16.7,30.22,SW,223,2.7,2.7,45,0.00,,CLR,0.00,VWS V13.00,2013-04-07 04:42:00,
2013-04-07 00:47:00,35.8,17.0,30.22,SW,216,0.0,3.1,46,0.00,,CLR,0.00,VWS V13.00,2013-04-07 04:47:00,
2013-04-07 00:52:00,35.6,16.9,30.22,SW,216,0.0,3.1,46,0.00,,CLR,0.00,VWS V13.00,2013-04-07 04:52:00,
2013-04-07 00:57:00,35.4,17.7,30.22,South,182,3.6,3.6,48,0.00,,CLR,0.00,VWS V13.00,2013-04-07 04:57:00,
2013-04-07 01:02:00,35.4,17.7,30.22,SW,222,3.1,4.0,48,0.00,,CLR,0.00,VWS V13.00,2013-04-07 05:02:00,
2013-04-07 01:07:00,35.2,18.0,30.22,SW,224,3.6,4.0,49,0.00,,CLR,0.00,VWS V13.00,2013-04-07 05:07:00,
2013-04-07 01:12:00,35.1,18.3,30.22,SSW,198,3.6,4.0,50,0.00,,CLR,0.00,VWS V13.00,2013-04-07 05:12:00,
2013-04-07 01:17:00,34.9,18.1,30.22,SSW,198,3.6,4.0,50,0.00,,CLR,0.00,VWS V13.00,2013-04-07 05:17:00,
2013-04-07 01:23:00,34.9,18.6,30.22,SSW,210,3.6,4.0,51,0.00,,CLR,0.00,VWS V13.00,2013-04-07 05:23:00,
2013-04-07 01:28:00,34.9,18.6,30.22,South,182,2.7,4.9,51,0.00,,CLR,0.00,VWS V13.00,2013-04-07 05:28:00,
2013-04-07 01:33:00,34.9,19.1,30.22,SSW,212,3.6,5.8,52,0.00,,CLR,0.00,VWS V13.00,2013-04-07 05:33:00,
2013-04-07 01:38:00,34.7,18.9,30.22,SSW,203,3.6,5.8,52,0.00,,CLR,0.00,VWS V13.00,2013-04-07 05:38:00,
2013-04-07 01:43:00,34.7,18.9,30.22,SW,214,4.0,4.9,52,0.00,,CLR,0.00,VWS V13.00,2013-04-07 05:43:00,
2013-04-07 01:48:00,34.7,19.3,30.22,SSW,198,3.6,5.4,53,0.00,,CLR,0.00,VWS V13.00,2013-04-07 05:48:00,
2013-04-07 01:53:00,34.7,19.3,30.22,South,175,5.4,6.3,53,0.00,,CLR,0.00,VWS V13.00,2013-04-07 05:53:00,
2013-04-07 01:58:00,34.9,19.9,30.22,South,176,3.6,7.6,54,0.00,,CLR,0.00,VWS V13.00,2013-04-07 05:58:00,
2013-04-07 02:03:00,34.7,19.8,30.22,SSW,210,4.0,8.1,54,0.00,,CLR,0.00,VWS V13.00,2013-04-07 06:03:00,
2013-04-07 02:08:00,34.7,20.2,30.19,SSW,199,4.0,8.1,55,0.00,,CLR,0.00,VWS V13.00,2013-04-07 06:08:00,
2013-04-07 02:13:00,34.5,20.0,30.19,South,187,4.0,8.1,55,0.00,,CLR,0.00,VWS V13.00,2013-04-07 06:13:00,
2013-04-07 02:18:00,34.7,20.2,30.19,South,181,5.4,8.1,55,0.00,,CLR,0.00,VWS V13.00,2013-04-07 06:18:00,
2013-04-07 02:23:00,34.5,20.0,30.19,SSW,210,3.6,5.8,55,0.00,,CLR,0.00,VWS V13.00,2013-04-07 06:23:00,
2013-04-07 02:28:00,34.5,20.0,30.19,South,190,4.9,5.8,55,0.00,,CLR,0.00,VWS V13.00,2013-04-07 06:28:00,
2013-04-07 02:33:00,34.5,20.0,30.19,SSW,195,2.7,5.8,55,0.00,,CLR,0.00,VWS V13.00,2013-04-07 06:33:00,
2013-04-07 02:38:00,34.5,20.0,30.19,SSW,201,2.7,5.8,55,0.00,,CLR,0.00,VWS V13.00,2013-04-07 06:38:00,
2013-04-07 02:43:00,34.3,19.9,30.19,SSW,200,3.1,3.1,55,0.00,,CLR,0.00,VWS V13.00,2013-04-07 06:43:00,
2013-04-07 02:48:00,34.3,19.9,30.19,WSW,237,2.7,3.6,55,0.00,,CLR,0.00,VWS V13.00,2013-04-07 06:48:00,
2013-04-07 02:53:00,34.2,20.1,30.19,SSW,212,3.1,3.6,56,0.00,,CLR,0.00,VWS V13.00,2013-04-07 06:53:00,
2013-04-07 02:58:00,34.0,20.0,30.19,South,184,4.9,4.9,56,0.00,,CLR,0.00,VWS V13.00,2013-04-07 06:58:00,
2013-04-07 03:04:00,34.3,20.3,30.19,South,186,5.4,5.8,56,0.00,,CLR,0.00,VWS V13.00,2013-04-07 07:04:00,
2013-04-07 03:09:00,34.2,20.5,30.19,SSW,196,3.6,5.8,57,0.00,,CLR,0.00,VWS V13.00,2013-04-07 07:09:00,
2013-04-07 03:14:00,34.2,20.5,30.19,SSW,209,2.7,6.3,57,0.00,,CLR,0.00,VWS V13.00,2013-04-07 07:14:00,
2013-04-07 03:20:00,34.2,20.5,30.19,South,185,4.0,6.3,57,0.00,,CLR,0.00,VWS V13.00,2013-04-07 07:20:00,
2013-04-07 03:25:00,34.3,21.1,30.19,SW,223,2.7,5.8,58,0.00,,CLR,0.00,VWS V13.00,2013-04-07 07:25:00,
2013-04-07 03:30:00,34.3,21.1,30.19,SW,225,5.4,5.8,58,0.00,,CLR,0.00,VWS V13.00,2013-04-07 07:30:00,
2013-04-07 03:35:00,34.3,21.1,30.19,SSW,195,3.1,5.8,58,0.00,,CLR,0.00,VWS V13.00,2013-04-07 07:35:00,
2013-04-07 03:40:00,34.3,21.1,30.19,SW,227,3.6,5.8,58,0.00,,CLR,0.00,VWS V13.00,2013-04-07 07:40:00,
2013-04-07 03:45:00,34.5,21.3,30.19,SSW,210,2.7,5.4,58,0.00,,CLR,0.00,VWS V13.00,2013-04-07 07:45:00,
2013-04-07 03:50:00,34.5,21.3,30.19,South,183,5.4,5.4,58,0.00,,CLR,0.00,VWS V13.00,2013-04-07 07:50:00,
2013-04-07 03:55:00,34.7,21.5,30.19,SSW,205,5.4,5.8,58,0.00,,CLR,0.00,VWS V13.00,2013-04-07 07:55:00,
2013-04-07 04:00:00,34.7,21.5,30.19,SSW,200,3.6,5.8,58,0.00,,CLR,0.00,VWS V13.00,2013-04-07 08:00:00,
2013-04-07 04:05:00,34.5,21.3,30.19,SSW,210,4.0,5.4,58,0.00,,CLR,0.00,VWS V13.00,2013-04-07 08:05:00,
2013-04-07 04:10:00,34.5,21.3,30.19,SSW,208,4.0,5.8,58,0.00,,CLR,0.00,VWS V13.00,2013-04-07 08:10:00,
2013-04-07 04:15:00,34.5,21.3,30.19,SW,216,2.7,5.8,58,0.00,,CLR,0.00,VWS V13.00,2013-04-07 08:15:00,
2013-04-07 04:20:00,34.5,21.3,30.19,SSE,164,5.8,5.8,58,0.00,,CLR,0.00,VWS V13.00,2013-04-07 08:20:00,
2013-04-07 04:25:00,34.5,21.3,30.19,SSW,201,3.6,5.8,58,0.00,,CLR,0.00,VWS V13.00,2013-04-07 08:25:00,
2013-04-07 04:30:00,34.5,21.3,30.19,SSW,211,3.1,5.8,58,0.00,,CLR,0.00,VWS V13.00,2013-04-07 08:30:00,
2013-04-07 04:36:00,34.3,21.1,30.19,SSW,206,2.7,5.8,58,0.00,,CLR,0.00,VWS V13.00,2013-04-07 08:36:00,
2013-04-07 04:41:00,34.3,21.1,30.19,South,187,3.6,3.6,58,0.00,,CLR,0.00,VWS V13.00,2013-04-07 08:41:00,
2013-04-07 04:46:00,34.3,21.5,30.19,South,181,3.1,4.0,59,0.00,,CLR,0.00,VWS V13.00,2013-04-07 08:46:00,
2013-04-07 04:51:00,34.5,21.7,30.19,SSW,200,4.0,5.4,59,0.00,,CLR,0.00,VWS V13.00,2013-04-07 08:51:00,
2013-04-07 04:57:00,34.5,21.7,30.19,WSW,240,3.1,5.4,59,0.00,,CLR,0.00,VWS V13.00,2013-04-07 08:57:00,
2013-04-07 05:02:00,34.5,21.7,30.19,SSW,206,4.0,5.8,59,0.00,,CLR,0.00,VWS V13.00,2013-04-07 09:02:00,
2013-04-07 05:07:00,34.7,22.2,30.19,SSW,196,4.0,5.8,60,0.00,,CLR,0.00,VWS V13.00,2013-04-07 09:07:00,
2013-04-07 05:12:00,34.9,22.4,30.19,South,174,5.8,7.6,60,0.00,,CLR,0.00,VWS V13.00,2013-04-07 09:12:00,
2013-04-07 05:17:00,34.9,22.4,30.19,South,179,6.3,9.2,60,0.00,,CLR,0.00,VWS V13.00,2013-04-07 09:17:00,
2013-04-07 05:22:00,34.9,22.4,30.19,South,170,7.6,7.6,60,0.00,,CLR,0.00,VWS V13.00,2013-04-07 09:22:00,
2013-04-07 05:27:00,34.9,22.4,30.19,SSW,195,4.0,7.6,60,0.00,,CLR,0.00,VWS V13.00,2013-04-07 09:27:00,
2013-04-07 05:32:00,35.1,22.6,30.19,South,173,5.4,8.1,60,0.00,,CLR,0.00,VWS V13.00,2013-04-07 09:32:00,
2013-04-07 05:37:00,35.1,22.6,30.19,SSW,194,3.6,8.1,60,0.00,,CLR,0.00,VWS V13.00,2013-04-07 09:37:00,
2013-04-07 05:42:00,35.1,22.6,30.19,SSW,212,4.9,5.8,60,0.00,,CLR,0.00,VWS V13.00,2013-04-07 09:42:00,
2013-04-07 05:47:00,35.1,22.6,30.19,South,186,4.9,5.8,60,0.00,,CLR,0.00,VWS V13.00,2013-04-07 09:47:00,
2013-04-07 05:52:00,35.1,22.6,30.19,SSW,195,3.6,5.8,60,0.00,,CLR,0.00,VWS V13.00,2013-04-07 09:52:00,
2013-04-07 05:57:00,35.1,22.6,30.19,SW,226,3.6,5.8,60,0.00,,CLR,0.00,VWS V13.00,2013-04-07 09:57:00,
2013-04-07 06:02:00,35.1,22.6,30.19,SSW,197,4.0,4.9,60,0.00,,CLR,0.00,VWS V13.00,2013-04-07 10:02:00,
2013-04-07 06:07:00,35.1,22.6,30.19,SSW,192,3.6,5.4,60,0.00,,CLR,0.00,VWS V13.00,2013-04-07 10:07:00,
2013-04-07 06:13:00,35.1,22.6,30.19,SSW,212,2.7,5.4,60,0.00,,CLR,0.00,VWS V13.00,2013-04-07 10:13:00,
2013-04-07 06:18:00,35.1,22.2,30.19,SSW,203,4.0,5.4,59,0.00,,CLR,0.00,VWS V13.00,2013-04-07 10:18:00,
2013-04-07 06:23:00,35.1,22.2,30.19,SSW,205,3.6,5.4,59,0.00,,CLR,0.00,VWS V13.00,2013-04-07 10:23:00,
2013-04-07 06:28:00,35.1,22.6,30.19,SSW,203,3.6,5.4,60,0.00,,CLR,0.00,VWS V13.00,2013-04-07 10:28:00,
2013-04-07 06:33:00,35.2,22.8,30.19,SSW,199,3.1,5.4,60,0.00,,CLR,0.00,VWS V13.00,2013-04-07 10:33:00,
2013-04-07 06:38:00,35.2,22.8,30.19,SSW,192,4.0,5.4,60,0.00,,SCT120,0.00,VWS V13.00,2013-04-07 10:38:00,
2013-04-07 06:43:00,35.2,22.8,30.19,SSW,199,3.6,5.8,60,0.00,,SCT120,0.00,VWS V13.00,2013-04-07 10:43:00,
2013-04-07 06:48:00,35.2,22.8,30.19,SSW,193,4.5,5.8,60,0.00,,SCT120,0.00,VWS V13.00,2013-04-07 10:48:00,
2013-04-07 06:53:00,35.4,22.9,30.19,SSW,210,3.6,5.8,60,0.00,,SCT120,0.00,VWS V13.00,2013-04-07 10:53:00,
2013-04-07 06:58:00,35.4,22.9,30.19,SSW,195,2.7,5.8,60,0.00,,SCT120,0.00,VWS V13.00,2013-04-07 10:58:00,
2013-04-07 07:04:00,35.4,23.3,30.19,South,186,4.9,4.9,61,0.00,,SCT120,0.00,VWS V13.00,2013-04-07 11:04:00,
2013-04-07 07:09:00,35.4,23.3,30.19,SW,214,4.0,6.3,61,0.00,,SCT120,0.00,VWS V13.00,2013-04-07 11:09:00,
2013-04-07 07:14:00,35.6,23.5,30.19,SSW,200,3.6,6.3,61,0.00,,SCT120,0.00,VWS V13.00,2013-04-07 11:14:00,
2013-04-07 07:19:00,35.8,23.7,30.19,SSW,209,4.0,6.3,61,0.00,,SCT120,0.00,VWS V13.00,2013-04-07 11:19:00,
2013-04-07 07:24:00,36.0,23.8,30.19,SSW,199,3.6,4.9,61,0.00,,SCT120,0.00,VWS V13.00,2013-04-07 11:24:00,
2013-04-07 07:30:00,36.1,24.0,30.19,South,172,3.1,6.3,61,0.00,,SCT120,0.00,VWS V13.00,2013-04-07 11:30:00,
2013-04-07 07:35:00,36.3,24.2,30.19,South,173,4.0,6.3,61,0.00,,SCT120,0.00,VWS V13.00,2013-04-07 11:35:00,
2013-04-07 07:40:00,36.3,24.2,30.19,SSW,192,4.0,6.3,61,0.00,,OVC100,0.00,VWS V13.00,2013-04-07 11:40:00,
2013-04-07 07:45:00,36.7,24.5,30.19,SSW,193,5.4,5.4,61,0.00,,OVC100,0.00,VWS V13.00,2013-04-07 11:45:00,
2013-04-07 07:50:00,36.7,24.5,30.19,SSW,209,3.1,6.3,61,0.00,,OVC100,0.00,VWS V13.00,2013-04-07 11:50:00,
2013-04-07 07:55:00,36.9,25.1,30.19,South,169,4.0,6.7,62,0.00,,OVC100,0.00,VWS V13.00,2013-04-07 11:55:00,
2013-04-07 08:00:00,37.2,25.4,30.19,SSW,201,4.0,6.7,62,0.00,,OVC100,0.00,VWS V13.00,2013-04-07 12:00:00,
2013-04-07 08:06:00,37.8,25.5,30.19,South,183,6.3,8.1,61,0.00,,OVC100,0.00,VWS V13.00,2013-04-07 12:06:00,
2013-04-07 08:11:00,38.1,25.9,30.19,SSW,193,5.4,8.1,61,0.00,,OVC100,0.00,VWS V13.00,2013-04-07 12:11:00,
2013-04-07 08:16:00,38.7,26.4,30.19,SW,215,4.0,8.1,61,0.00,,OVC100,0.00,VWS V13.00,2013-04-07 12:16:00,
2013-04-07 08:21:00,38.7,26.0,30.19,SW,220,5.4,5.4,60,0.00,,OVC100,0.00,VWS V13.00,2013-04-07 12:21:00,
2013-04-07 08:26:00,39.0,25.9,30.19,SSE,157,6.3,6.3,59,0.00,,OVC100,0.00,VWS V13.00,2013-04-07 12:26:00,
2013-04-07 08:31:00,39.4,25.9,30.19,SSW,206,3.6,6.3,58,0.00,,OVC100,0.00,VWS V13.00,2013-04-07 12:31:00,
2013-04-07 08:37:00,39.9,25.9,30.19,South,173,5.4,8.1,57,0.00,,OVC110,0.00,VWS V13.00,2013-04-07 12:37:00,
2013-04-07 08:42:00,40.1,25.7,30.19,SSW,210,6.3,8.1,56,0.00,,OVC110,0.00,VWS V13.00,2013-04-07 12:42:00,
2013-04-07 08:47:00,40.8,25.9,30.19,SSW,209,6.3,9.2,55,0.00,,OVC110,0.00,VWS V13.00,2013-04-07 12:47:00,
2013-04-07 08:52:00,43.3,27.4,30.19,SW,221,4.0,9.2,53,0.00,,OVC110,0.00,VWS V13.00,2013-04-07 12:52:00,
2013-04-07 08:57:00,45.1,28.1,30.19,SW,217,5.4,11.0,51,0.00,,OVC110,0.00,VWS V13.00,2013-04-07 12:57:00,
2013-04-07 09:02:00,45.3,27.8,30.19,SSW,209,8.3,10.1,50,0.00,,OVC110,0.00,VWS V13.00,2013-04-07 13:02:00,
2013-04-07 09:08:00,44.1,26.1,30.16,SW,218,10.1,10.5,49,0.00,,OVC110,0.00,VWS V13.00,2013-04-07 13:08:00,
2013-04-07 09:13:00,44.6,26.1,30.16,SSE,168,6.3,12.3,48,0.00,,OVC110,0.00,VWS V13.00,2013-04-07 13:13:00,
2013-04-07 09:18:00,46.0,27.5,30.16,SSW,209,5.4,12.3,48,0.00,,OVC110,0.00,VWS V13.00,2013-04-07 13:18:00,
2013-04-07 09:23:00,46.8,27.6,30.16,South,181,5.8,11.0,47,0.00,,OVC110,0.00,VWS V13.00,2013-04-07 13:23:00,
2013-04-07 09:28:00,47.5,27.2,30.16,South,177,7.6,11.0,45,0.00,,OVC110,0.00,VWS V13.00,2013-04-07 13:28:00,
2013-04-07 09:33:00,48.2,26.8,30.16,South,174,10.1,11.0,43,0.00,,OVC110,0.00,VWS V13.00,2013-04-07 13:33:00,
2013-04-07 09:38:00,47.8,26.4,30.16,South,184,5.4,11.0,43,0.00,,SCT110,0.00,VWS V13.00,2013-04-07 13:38:00,
2013-04-07 09:43:00,47.3,25.4,30.16,SW,217,8.1,13.2,42,0.00,,SCT110,0.00,VWS V13.00,2013-04-07 13:43:00,
2013-04-07 09:48:00,47.5,25.5,30.16,SSW,208,13.2,13.2,42,0.00,,SCT110,0.00,VWS V13.00,2013-04-07 13:48:00,
2013-04-07 09:53:00,47.8,25.3,30.16,South,180,12.3,14.1,41,0.00,,SCT110,0.00,VWS V13.00,2013-04-07 13:53:00,
2013-04-07 09:59:00,47.5,25.0,30.16,SW,222,7.6,15.9,41,0.00,,SCT110,0.00,VWS V13.00,2013-04-07 13:59:00,
2013-04-07 10:04:00,47.8,25.3,30.16,SSW,205,8.1,11.0,41,0.00,,SCT110,0.00,VWS V13.00,2013-04-07 14:04:00,
2013-04-07 10:09:00,47.5,25.0,30.16,SSE,165,12.3,15.0,41,0.00,,SCT110,0.00,VWS V13.00,2013-04-07 14:09:00,
2013-04-07 10:14:00,47.8,25.3,30.16,South,179,8.7,15.0,41,0.00,,SCT110,0.00,VWS V13.00,2013-04-07 14:14:00,
2013-04-07 10:19:00,49.6,26.3,30.16,SSE,149,10.5,15.0,40,0.00,,SCT110,0.00,VWS V13.00,2013-04-07 14:19:00,
2013-04-07 10:24:00,49.3,25.4,30.16,South,177,12.8,12.8,39,0.00,,SCT110,0.00,VWS V13.00,2013-04-07 14:24:00,
2013-04-07 10:29:00,49.6,25.7,30.16,South,170,5.8,12.8,39,0.00,,SCT110,0.00,VWS V13.00,2013-04-07 14:29:00,
2013-04-07 10:34:00,50.2,26.2,30.16,SSE,156,8.3,15.0,39,0.00,,SCT110,0.00,VWS V13.00,2013-04-07 14:34:00,
2013-04-07 10:40:00,50.9,26.8,30.13,South,171,7.6,15.0,39,0.00,,SCT110,0.00,VWS V13.00,2013-04-07 14:40:00,
2013-04-07 10:45:00,51.4,26.7,30.13,SSW,193,15.0,15.0,38,0.00,,SCT110,0.00,VWS V13.00,2013-04-07 14:45:00,
2013-04-07 10:50:00,52.2,27.3,30.13,SSW,203,9.2,15.0,38,0.00,,SCT110,0.00,VWS V13.00,2013-04-07 14:50:00,
2013-04-07 10:55:00,52.7,27.2,30.13,SSW,211,6.3,15.0,37,0.00,,SCT110,0.00,VWS V13.00,2013-04-07 14:55:00,
2013-04-07 11:00:00,52.9,27.3,30.13,SSE,152,14.5,15.0,37,0.00,,SCT110,0.00,VWS V13.00,2013-04-07 15:00:00,
2013-04-07 11:05:00,53.6,28.0,30.13,South,178,5.8,15.9,37,0.00,,SCT110,0.00,VWS V13.00,2013-04-07 15:05:00,
2013-04-07 11:10:00,54.0,28.3,30.13,SSE,152,10.1,17.0,37,0.00,,SCT110,0.00,VWS V13.00,2013-04-07 15:10:00,
2013-04-07 11:15:00,55.0,29.3,30.13,SSE,151,6.3,17.0,37,0.00,,SCT110,0.00,VWS V13.00,2013-04-07 15:15:00,
2013-04-07 11:21:00,54.9,28.4,30.13,SSE,155,12.3,13.6,36,0.00,,SCT110,0.00,VWS V13.00,2013-04-07 15:21:00,
2013-04-07 11:26:00,54.9,28.4,30.13,WSW,238,4.0,13.6,36,0.00,,SCT110,0.00,VWS V13.00,2013-04-07 15:26:00,
2013-04-07 11:31:00,54.7,28.3,30.13,SW,231,8.3,13.6,36,0.00,,SCT110,0.00,VWS V13.00,2013-04-07 15:31:00,
2013-04-07 11:37:00,55.8,29.2,30.13,South,169,7.6,13.6,36,0.00,,CLR,0.00,VWS V13.00,2013-04-07 15:37:00,
2013-04-07 11:42:00,55.9,28.7,30.13,South,181,6.3,11.9,35,0.00,,CLR,0.00,VWS V13.00,2013-04-07 15:42:00,
2013-04-07 11:47:00,55.8,28.5,30.13,South,182,8.3,12.3,35,0.00,,CLR,0.00,VWS V13.00,2013-04-07 15:47:00,
2013-04-07 11:52:00,55.8,28.5,30.10,South,183,7.6,12.8,35,0.00,,CLR,0.00,VWS V13.00,2013-04-07 15:52:00,
2013-04-07 11:57:00,55.9,28.7,30.10,SSE,161,6.3,13.2,35,0.00,,CLR,0.00,VWS V13.00,2013-04-07 15:57:00,
2013-04-07 12:02:00,56.8,29.5,30.10,SW,220,7.6,10.1,35,0.00,,CLR,0.00,VWS V13.00,2013-04-07 16:02:00,
2013-04-07 12:07:00,57.4,30.0,30.10,SE,130,8.7,11.0,35,0.00,,CLR,0.00,VWS V13.00,2013-04-07 16:07:00,
2013-04-07 12:12:00,56.5,29.2,30.10,SSE,167,11.0,14.5,35,0.00,,CLR,0.00,VWS V13.00,2013-04-07 16:12:00,
2013-04-07 12:17:00,56.5,28.5,30.10,South,191,11.0,21.0,34,0.00,,CLR,0.00,VWS V13.00,2013-04-07 16:17:00,
2013-04-07 12:22:00,57.0,29.7,30.07,SE,146,10.5,12.3,35,0.00,,CLR,0.00,VWS V13.00,2013-04-07 16:22:00,
2013-04-07 12:27:00,57.2,28.4,30.07,South,179,10.5,17.0,33,0.00,,CLR,0.00,VWS V13.00,2013-04-07 16:27:00,
2013-04-07 12:32:00,58.1,29.9,30.07,SW,229,8.1,17.0,34,0.00,,-RA,0.00,VWS V13.00,2013-04-07 16:32:00,
2013-04-07 12:37:00,58.8,30.5,30.07,South,179,8.1,17.0,34,0.00,,-RA,0.00,VWS V13.00,2013-04-07 16:37:00,
2013-04-07 12:43:00,59.7,30.6,30.07,SSW,194,4.0,10.5,33,0.00,,-RA,0.00,VWS V13.00,2013-04-07 16:43:00,
2013-04-07 12:48:00,59.4,29.5,30.07,South,179,9.2,15.0,32,0.00,,-RA,0.00,VWS V13.00,2013-04-07 16:48:00,
2013-04-07 12:53:00,60.3,30.3,30.07,SSE,165,15.0,15.0,32,0.00,,-RA,0.00,VWS V13.00,2013-04-07 16:53:00,
2013-04-07 12:58:00,59.2,28.6,30.07,SW,218,10.1,15.9,31,0.00,,-RA,0.00,VWS V13.00,2013-04-07 16:58:00,
2013-04-07 13:03:00,60.1,29.4,30.07,South,177,8.7,12.3,31,0.00,,-RA,0.00,VWS V13.00,2013-04-07 17:03:00,
2013-04-07 13:08:00,60.6,29.0,30.07,SW,220,11.0,12.8,30,0.00,,-RA,0.00,VWS V13.00,2013-04-07 17:08:00,
2013-04-07 13:13:00,60.4,28.9,30.07,South,181,12.8,13.2,30,0.00,,-RA,0.00,VWS V13.00,2013-04-07 17:13:00,
2013-04-07 13:19:00,59.5,28.1,30.07,SE,138,13.2,14.1,30,0.00,,-RA,0.00,VWS V13.00,2013-04-07 17:19:00,
2013-04-07 13:24:00,59.4,28.7,30.04,SW,236,6.3,12.3,31,0.00,,-RA,0.00,VWS V13.00,2013-04-07 17:24:00,
2013-04-07 13:29:00,61.0,30.2,30.04,SSW,213,8.7,12.3,31,0.00,,-RA,0.00,VWS V13.00,2013-04-07 17:29:00,
2013-04-07 13:34:00,61.0,29.4,30.04,South,178,12.8,13.6,30,0.00,,-RA,0.00,VWS V13.00,2013-04-07 17:34:00,
2013-04-07 13:39:00,61.0,29.4,30.04,SSW,212,8.3,13.6,30,0.00,,CLR,0.00,VWS V13.00,2013-04-07 17:39:00,
2013-04-07 13:45:00,61.9,30.9,30.04,SSW,199,8.3,12.8,31,0.00,,CLR,0.00,VWS V13.00,2013-04-07 17:45:00,
2013-04-07 13:50:00,62.2,30.5,30.04,South,173,8.3,12.8,30,0.00,,CLR,0.00,VWS V13.00,2013-04-07 17:50:00,
2013-04-07 13:55:00,62.1,30.3,30.04,South,190,8.7,14.1,30,0.00,,CLR,0.00,VWS V13.00,2013-04-07 17:55:00,
2013-04-07 14:00:00,61.9,30.1,30.04,SW,231,8.7,14.1,30,0.00,,CLR,0.00,VWS V13.00,2013-04-07 18:00:00,
2013-04-07 14:05:00,62.2,31.2,30.04,South,173,9.6,13.2,31,0.00,,CLR,0.00,VWS V13.00,2013-04-07 18:05:00,
2013-04-07 14:10:00,62.1,30.3,30.04,SSW,197,8.1,14.5,30,0.00,,CLR,0.00,VWS V13.00,2013-04-07 18:10:00,
2013-04-07 14:15:00,62.8,30.9,30.04,South,188,8.3,14.5,30,0.00,,CLR,0.00,VWS V13.00,2013-04-07 18:15:00,
2013-04-07 14:20:00,63.0,31.9,30.04,South,171,12.8,12.8,31,0.00,,CLR,0.00,VWS V13.00,2013-04-07 18:20:00,
2013-04-07 14:25:00,63.1,31.2,30.01,SSW,210,11.0,12.8,30,0.00,,CLR,0.00,VWS V13.00,2013-04-07 18:25:00,
2013-04-07 14:30:00,62.6,30.8,30.01,SSW,208,7.6,13.2,30,0.00,,CLR,0.00,VWS V13.00,2013-04-07 18:30:00,
2013-04-07 14:35:00,62.6,31.6,30.01,SSW,205,5.4,15.0,31,0.00,,CLR,0.00,VWS V13.00,2013-04-07 18:35:00,
2013-04-07 14:40:00,63.0,31.9,30.01,SSW,192,13.2,19.7,31,0.00,,CLR,0.00,VWS V13.00,2013-04-07 18:40:00,
2013-04-07 14:46:00,63.0,31.9,30.01,SSE,167,10.1,19.7,31,0.00,,CLR,0.00,VWS V13.00,2013-04-07 18:46:00,
2013-04-07 14:51:00,63.7,32.5,30.01,SSW,211,7.6,19.7,31,0.00,,CLR,0.00,VWS V13.00,2013-04-07 18:51:00,
2013-04-07 14:56:00,64.0,33.6,30.01,SW,227,10.5,19.7,32,0.00,,CLR,0.00,VWS V13.00,2013-04-07 18:56:00,
2013-04-07 15:01:00,64.6,33.3,30.01,South,183,8.1,11.9,31,0.00,,CLR,0.00,VWS V13.00,2013-04-07 19:01:00,
2013-04-07 15:06:00,63.9,33.5,29.98,SSW,208,8.3,15.4,32,0.00,,CLR,0.00,VWS V13.00,2013-04-07 19:06:00,
2013-04-07 15:11:00,63.9,33.5,29.98,South,170,10.5,15.4,32,0.00,,CLR,0.00,VWS V13.00,2013-04-07 19:11:00,
2013-04-07 15:16:00,64.2,34.5,29.98,SSW,208,10.5,15.4,33,0.00,,CLR,0.00,VWS V13.00,2013-04-07 19:16:00,
2013-04-07 15:22:00,64.0,33.6,29.98,SSE,164,8.7,11.0,32,0.00,,CLR,0.00,VWS V13.00,2013-04-07 19:22:00,
2013-04-07 15:27:00,63.9,34.2,29.98,SSW,199,13.2,13.2,33,0.00,,CLR,0.00,VWS V13.00,2013-04-07 19:27:00,
2013-04-07 15:32:00,63.7,34.1,29.98,South,187,10.1,13.2,33,0.00,,CLR,0.00,VWS V13.00,2013-04-07 19:32:00,
2013-04-07 15:37:00,64.0,34.4,29.95,South,185,8.7,13.2,33,0.00,,CLR,0.00,VWS V13.00,2013-04-07 19:37:00,
2013-04-07 15:42:00,64.2,34.5,29.95,South,177,13.2,14.1,33,0.00,,CLR,0.00,VWS V13.00,2013-04-07 19:42:00,
2013-04-07 15:47:00,64.0,34.4,29.95,SSW,198,5.4,14.1,33,0.00,,CLR,0.00,VWS V13.00,2013-04-07 19:47:00,
2013-04-07 15:52:00,64.0,34.4,29.95,SW,217,8.3,15.0,33,0.00,,CLR,0.00,VWS V13.00,2013-04-07 19:52:00,
2013-04-07 15:57:00,64.2,34.5,29.95,South,182,8.3,15.0,33,0.00,,CLR,0.00,VWS V13.00,2013-04-07 19:57:00,
2013-04-07 16:02:00,64.6,34.8,29.95,South,180,8.1,11.0,33,0.00,,CLR,0.00,VWS V13.00,2013-04-07 20:02:00,
2013-04-07 16:07:00,65.1,35.3,29.98,South,186,8.1,11.0,33,0.00,,CLR,0.00,VWS V13.00,2013-04-07 20:07:00,
2013-04-07 16:12:00,65.1,35.3,29.98,South,172,7.6,11.0,33,0.00,,CLR,0.00,VWS V13.00,2013-04-07 20:12:00,
2013-04-07 16:17:00,64.2,35.3,29.98,South,176,15.4,15.4,34,0.00,,CLR,0.00,VWS V13.00,2013-04-07 20:17:00,
2013-04-07 16:22:00,63.9,35.0,29.95,SSE,158,5.8,12.8,34,0.00,,CLR,0.00,VWS V13.00,2013-04-07 20:22:00,
2013-04-07 16:27:00,63.1,34.3,29.95,SSW,203,6.3,13.2,34,0.00,,CLR,0.00,VWS V13.00,2013-04-07 20:27:00,
2013-04-07 16:33:00,63.5,34.7,29.95,South,175,12.8,13.2,34,0.00,,CLR,0.00,VWS V13.00,2013-04-07 20:33:00,
2013-04-07 16:38:00,63.1,34.3,29.95,South,179,12.3,14.1,34,0.00,,CLR,0.00,VWS V13.00,2013-04-07 20:38:00,
2013-04-07 16:43:00,62.8,34.0,29.95,SE,146,6.3,13.2,34,0.00,,CLR,0.00,VWS V13.00,2013-04-07 20:43:00,
2013-04-07 16:48:00,62.8,34.0,29.95,SSW,201,10.5,15.0,34,0.00,,CLR,0.00,VWS V13.00,2013-04-07 20:48:00,
2013-04-07 16:54:00,62.1,33.4,29.95,South,186,11.0,20.6,34,0.00,,CLR,0.00,VWS V13.00,2013-04-07 20:54:00,
2013-04-07 16:59:00,61.5,33.6,29.95,South,179,8.3,20.6,35,0.00,,CLR,0.00,VWS V13.00,2013-04-07 20:59:00,
2013-04-07 17:04:00,60.4,32.7,29.95,SSW,200,7.6,11.0,35,0.00,,CLR,0.00,VWS V13.00,2013-04-07 21:04:00,
2013-04-07 17:10:00,59.7,32.0,29.95,SSW,192,11.9,13.2,35,0.00,,CLR,0.00,VWS V13.00,2013-04-07 21:10:00,
2013-04-07 17:15:00,59.2,32.3,29.95,SSW,196,7.6,13.2,36,0.00,,CLR,0.00,VWS V13.00,2013-04-07 21:15:00,
2013-04-07 17:20:00,59.4,32.4,29.95,South,180,8.3,13.2,36,0.00,,CLR,0.00,VWS V13.00,2013-04-07 21:20:00,
2013-04-07 17:25:00,59.2,32.3,29.95,South,180,7.6,14.1,36,0.00,,CLR,0.00,VWS V13.00,2013-04-07 21:25:00,
2013-04-07 17:30:00,59.2,32.3,29.95,SSW,204,6.3,14.1,36,0.00,,CLR,0.00,VWS V13.00,2013-04-07 21:30:00,
2013-04-07 17:35:00,59.2,32.3,29.95,WSW,241,5.4,14.1,36,0.00,,CLR,0.00,VWS V13.00,2013-04-07 21:35:00,
2013-04-07 17:40:00,59.0,32.1,29.95,SW,218,6.3,14.1,36,0.00,,FEW120,0.00,VWS V13.00,2013-04-07 21:40:00,
2013-04-07 17:45:00,59.0,32.8,29.95,SW,222,10.1,10.1,37,0.00,,FEW120,0.00,VWS V13.00,2013-04-07 21:45:00,
2013-04-07 17:50:00,59.0,32.8,29.95,SSW,209,8.3,10.1,37,0.00,,FEW120,0.00,VWS V13.00,2013-04-07 21:50:00,
2013-04-07 17:55:00,58.8,32.6,29.95,SSW,200,8.1,10.5,37,0.00,,FEW120,0.00,VWS V13.00,2013-04-07 21:55:00,
2013-04-07 18:00:00,58.8,32.6,29.95,SSW,213,10.5,10.5,37,0.00,,FEW120,0.00,VWS V13.00,2013-04-07 22:00:00,
2013-04-07 18:05:00,58.8,33.3,29.95,SSW,204,8.1,11.0,38,0.00,,FEW120,0.00,VWS V13.00,2013-04-07 22:05:00,
2013-04-07 18:10:00,58.6,33.1,29.95,South,179,10.1,11.0,38,0.00,,FEW120,0.00,VWS V13.00,2013-04-07 22:10:00,
2013-04-07 18:15:00,58.6,33.1,29.95,WSW,251,8.7,13.2,38,0.00,,FEW120,0.00,VWS V13.00,2013-04-07 22:15:00,
2013-04-07 18:21:00,58.5,33.0,29.95,SSW,209,5.8,8.1,38,0.00,,FEW120,0.00,VWS V13.00,2013-04-07 22:21:00,
2013-04-07 18:26:00,58.5,33.0,29.95,West,259,8.7,10.5,38,0.00,,FEW120,0.00,VWS V13.00,2013-04-07 22:26:00,
2013-04-07 18:31:00,58.5,33.6,29.95,SW,229,6.3,10.5,39,0.00,,FEW120,0.00,VWS V13.00,2013-04-07 22:31:00,
2013-04-07 18:36:00,58.1,33.3,29.95,SSW,204,8.7,10.5,39,0.00,,BKN100,0.00,VWS V13.00,2013-04-07 22:36:00,
2013-04-07 18:42:00,57.9,33.1,29.95,South,185,9.6,10.1,39,0.00,,BKN100,0.00,VWS V13.00,2013-04-07 22:42:00,
2013-04-07 18:47:00,57.6,32.8,29.95,SSW,210,10.1,10.1,39,0.00,,BKN100,0.00,VWS V13.00,2013-04-07 22:47:00,
2013-04-07 18:52:00,57.4,32.7,29.95,South,190,5.4,10.1,39,0.00,,BKN100,0.00,VWS V13.00,2013-04-07 22:52:00,
2013-04-07 18:57:00,57.0,33.0,29.95,SW,219,6.3,10.1,40,0.00,,BKN100,0.00,VWS V13.00,2013-04-07 22:57:00,
2013-04-07 19:02:00,56.8,32.8,29.95,SSW,206,6.3,8.1,40,0.00,,BKN100,0.00,VWS V13.00,2013-04-07 23:02:00,
2013-04-07 19:07:00,56.8,33.4,29.95,South,179,6.3,8.7,41,0.00,,BKN100,0.00,VWS V13.00,2013-04-07 23:07:00,
2013-04-07 19:13:00,56.7,33.2,29.95,SSW,205,7.6,8.7,41,0.00,,BKN100,0.00,VWS V13.00,2013-04-07 23:13:00,
2013-04-07 19:18:00,56.5,33.7,29.95,SSW,206,7.6,10.5,42,0.00,,BKN100,0.00,VWS V13.00,2013-04-07 23:18:00,
2013-04-07 19:23:00,56.3,33.5,29.95,SSW,208,7.6,8.1,42,0.00,,BKN100,0.00,VWS V13.00,2013-04-07 23:23:00,
2013-04-07 19:28:00,56.1,33.4,29.95,SSW,199,5.8,8.7,42,0.00,,BKN100,0.00,VWS V13.00,2013-04-07 23:28:00,
2013-04-07 19:33:00,55.9,33.8,29.95,SW,230,5.4,8.7,43,0.00,,BKN100,0.00,VWS V13.00,2013-04-07 23:33:00,
2013-04-07 19:38:00,55.8,33.6,29.95,SSW,211,6.3,8.7,43,0.00,,FEW080,0.00,VWS V13.00,2013-04-07 23:38:00,
2013-04-07 19:43:00,55.6,33.5,29.95,SSW,212,5.8,6.3,43,0.00,,FEW080,0.00,VWS V13.00,2013-04-07 23:43:00,
2013-04-07 19:48:00,55.2,33.7,29.95,SW,223,5.8,7.6,44,0.00,,FEW080,0.00,VWS V13.00,2013-04-07 23:48:00,
2013-04-07 19:53:00,55.0,34.1,29.95,SSW,207,4.0,8.3,45,0.00,,FEW080,0.00,VWS V13.00,2013-04-07 23:53:00,
2013-04-07 19:58:00,55.0,34.1,29.95,SSW,210,6.3,8.3,45,0.00,,FEW080,0.00,VWS V13.00,2013-04-07 23:58:00,
2013-04-07 20:03:00,54.7,33.8,29.95,SSW,202,4.9,6.3,45,0.00,,FEW080,0.00,VWS V13.00,2013-04-08 00:03:00,
2013-04-07 20:08:00,54.5,34.2,29.95,SSW,203,5.4,6.3,46,0.00,,CLR,0.00,VWS V13.00,2013-04-08 00:08:00,
2013-04-07 20:13:00,54.3,34.0,29.95,SSW,213,4.9,6.3,46,0.00,,CLR,0.00,VWS V13.00,2013-04-08 00:13:00,
2013-04-07 20:18:00,54.1,33.8,29.95,SSW,195,4.9,6.3,46,0.00,,CLR,0.00,VWS V13.00,2013-04-08 00:18:00,
2013-04-07 20:23:00,54.1,33.8,29.95,SSW,199,5.8,6.3,46,0.00,,CLR,0.00,VWS V13.00,2013-04-08 00:23:00,
2013-04-07 20:28:00,54.0,33.7,29.95,SSW,203,5.8,6.7,46,0.00,,CLR,0.00,VWS V13.00,2013-04-08 00:28:00,
2013-04-07 20:33:00,53.8,33.5,29.95,SSW,195,5.4,6.7,46,0.00,,CLR,0.00,VWS V13.00,2013-04-08 00:33:00,
2013-04-07 20:38:00,53.6,33.9,29.95,SSW,206,5.4,6.7,47,0.00,,CLR,0.00,VWS V13.00,2013-04-08 00:38:00,
2013-04-07 20:43:00,53.6,33.9,29.95,SSW,207,5.8,6.7,47,0.00,,CLR,0.00,VWS V13.00,2013-04-08 00:43:00,
2013-04-07 20:49:00,53.4,33.7,29.95,SSW,201,6.3,7.6,47,0.00,,CLR,0.00,VWS V13.00,2013-04-08 00:49:00,
2013-04-07 20:54:00,53.2,33.5,29.95,SSW,201,5.4,7.6,47,0.00,,CLR,0.00,VWS V13.00,2013-04-08 00:54:00,
2013-04-07 21:00:00,53.2,33.5,29.95,South,188,5.4,8.3,47,0.00,,CLR,0.00,VWS V13.00,2013-04-08 01:00:00,
2013-04-07 21:05:00,53.2,33.5,29.95,South,183,5.4,8.1,47,0.00,,CLR,0.00,VWS V13.00,2013-04-08 01:05:00,
2013-04-07 21:10:00,53.1,33.4,29.95,South,179,3.6,8.1,47,0.00,,CLR,0.00,VWS V13.00,2013-04-08 01:10:00,
2013-04-07 21:15:00,53.1,33.4,29.95,South,178,6.3,8.1,47,0.00,,CLR,0.00,VWS V13.00,2013-04-08 01:15:00,
2013-04-07 21:20:00,53.2,33.5,29.95,SW,215,4.0,8.1,47,0.00,,CLR,0.00,VWS V13.00,2013-04-08 01:20:00,
2013-04-07 21:25:00,52.7,33.0,29.95,SSW,199,5.8,7.6,47,0.00,,CLR,0.00,VWS V13.00,2013-04-08 01:25:00,
2013-04-07 21:30:00,52.9,33.7,29.95,SW,218,4.0,8.1,48,0.00,,CLR,0.00,VWS V13.00,2013-04-08 01:30:00,
2013-04-07 21:35:00,52.7,33.6,29.95,South,179,4.9,8.1,48,0.00,,CLR,0.00,VWS V13.00,2013-04-08 01:35:00,
2013-04-07 21:40:00,52.5,32.9,29.98,SW,221,5.4,5.4,47,0.00,,CLR,0.00,VWS V13.00,2013-04-08 01:40:00,
2013-04-07 21:45:00,52.3,33.2,29.98,South,188,4.9,6.3,48,0.00,,CLR,0.00,VWS V13.00,2013-04-08 01:45:00,
2013-04-07 21:50:00,52.3,33.2,29.98,SSW,202,4.0,6.3,48,0.00,,CLR,0.00,VWS V13.00,2013-04-08 01:50:00,
2013-04-07 21:55:00,52.2,33.1,29.98,SSW,202,5.8,6.3,48,0.00,,CLR,0.00,VWS V13.00,2013-04-08 01:55:00,
2013-04-07 22:01:00,52.0,32.9,29.98,SSW,202,4.0,4.9,48,0.00,,CLR,0.00,VWS V13.00,2013-04-08 02:01:00,
2013-04-07 22:07:00,52.2,33.6,29.98,SSW,199,5.4,8.3,49,0.00,,CLR,0.00,VWS V13.00,2013-04-08 02:07:00,
2013-04-07 22:12:00,52.2,33.6,29.98,SW,216,4.9,8.3,49,0.00,,CLR,0.00,VWS V13.00,2013-04-08 02:12:00,
2013-04-07 22:17:00,51.8,33.3,29.98,SSW,207,3.1,8.3,49,0.00,,CLR,0.00,VWS V13.00,2013-04-08 02:17:00,
2013-04-07 22:23:00,51.8,33.3,29.98,SSW,195,4.9,5.8,49,0.00,,CLR,0.00,VWS V13.00,2013-04-08 02:23:00,
2013-04-07 22:28:00,51.6,33.6,29.98,SSW,212,4.0,5.8,50,0.00,,CLR,0.00,VWS V13.00,2013-04-08 02:28:00,
2013-04-07 22:33:00,51.6,33.6,29.98,SSW,203,4.0,6.3,50,0.00,,CLR,0.00,VWS V13.00,2013-04-08 02:33:00,
2013-04-07 22:40:00,51.3,33.8,29.98,WSW,257,5.4,6.3,51,0.00,,CLR,0.00,VWS V13.00,2013-04-08 02:40:00,
2013-04-07 22:45:00,50.9,33.9,29.98,SSW,203,3.6,5.8,52,0.00,,CLR,0.00,VWS V13.00,2013-04-08 02:45:00,
2013-04-07 22:50:00,50.7,33.8,29.98,SSW,199,3.6,6.3,52,0.00,,CLR,0.00,VWS V13.00,2013-04-08 02:50:00,
2013-04-07 22:56:00,50.5,33.6,29.95,SSW,193,3.6,6.3,52,0.00,,CLR,0.00,VWS V13.00,2013-04-08 02:56:00,
2013-04-07 23:01:00,50.4,33.9,29.95,SW,214,2.7,3.6,53,0.00,,CLR,0.00,VWS V13.00,2013-04-08 03:01:00,
2013-04-07 23:06:00,50.2,33.7,29.95,SW,228,4.0,4.9,53,0.00,,CLR,0.00,VWS V13.00,2013-04-08 03:06:00,
2013-04-07 23:11:00,50.2,34.2,29.95,SSW,211,3.1,5.8,54,0.00,,CLR,0.00,VWS V13.00,2013-04-08 03:11:00,
2013-04-07 23:17:00,50.2,34.2,29.95,SW,224,4.0,5.8,54,0.00,,CLR,0.00,VWS V13.00,2013-04-08 03:17:00,
2013-04-07 23:22:00,50.2,34.2,29.95,SW,231,2.2,4.0,54,0.00,,CLR,0.00,VWS V13.00,2013-04-08 03:22:00,
2013-04-07 23:27:00,50.2,34.7,29.95,South,185,2.7,5.4,55,0.00,,CLR,0.00,VWS V13.00,2013-04-08 03:27:00,
2013-04-07 23:32:00,50.2,34.7,29.95,SW,221,3.1,5.4,55,0.00,,CLR,0.00,VWS V13.00,2013-04-08 03:32:00,
2013-04-07 23:37:00,50.5,35.4,29.95,WSW,238,6.3,7.6,56,0.00,,CLR,0.00,VWS V13.00,2013-04-08 03:37:00,
2013-04-07 23:42:00,50.7,35.6,29.95,SSW,213,3.6,5.4,56,0.00,,CLR,0.00,VWS V13.00,2013-04-08 03:42:00,
2013-04-07 23:47:00,50.9,36.2,29.95,SSW,192,5.8,5.8,57,0.00,,CLR,0.00,VWS V13.00,2013-04-08 03:47:00,
2013-04-07 23:52:00,51.1,36.4,29.95,SSW,195,3.6,5.8,57,0.00,,CLR,0.00,VWS V13.00,2013-04-08 03:52:00,
2013-04-07 23:57:00,51.3,36.6,29.95,South,180,2.7,6.3,57,0.00,,CLR,0.00,VWS V13.00,2013-04-08 03:57:00,